STARLINK-2186

decayed
NORAD ID: 48561 Int'l Des: 2021-041 Owner: SPXS Country: US Constellation: starlink
LEOCIRCULAR

关于 STARLINK-2186

正在加载描述...

高度历史

Altitude vs Time

uPlot chart will show altitude changes over time

两行轨道根数

1 48561U 21041J 24177.78920200 .12817566 12017-4 47651-2 0 9997
2 48561 53.0447 328.8050 0009762 309.3030 191.6421 16.23630941172916
Epoch: Jun 25, 2024 • Age: 10745 hours

当前状态

Position data unavailable
发射日期 May 15, 2021
运行时间 4.3 years
衰减日期 Jun 26, 2024
类型 internet

技术详情

分类 Payload
质量 260.00 kg
干质量 248.00 kg
总质量 260.00 kg
长度 0.20 m
直径 2.80 m
跨度 9.00 m
形状 Box + pan
制造商 SPXS
平台类型 Starlink
阶段状态 Unknown Transfer Status
所有者/国家 SPXS/US

大型星座

Loading constellations...